Home > Weather > Maracaibo > Past weeks

Flag for Venezuela Past Weather in Maracaibo, Venezuela — Yesterday and Last 2 Weeks

Now
84 °F

Passing clouds.


Feels Like: 92 °F
Forecast: 80 / 94 °F
Wind: 13 mph from Northeast

Location: Maracaibo-La Chinita

Current Time: Jul 23, 2016 at 10:55:36 PM

Latest Report: Jul 23, 2016 at 10:00 PM


Visibility: N/A

Pressure: 29.89 "Hg

Humidity: 74%

Dew Point: 75 °F

Location of MaracaiboLocation

Past Weather in Maracaibo — Graph

°F

Maracaibo Temperature Yesterday

Maximum temperature yesterday: 97 °F (at 1:00 PM)
Minimum temperature yesterday: 79 °F (at 6:00 AM)
Average temperature yesterday: 89 °F

High & Low Weather Summary for the Past Weeks

 TemperatureHumidityPressure
High97 °F (Jul 9, 2:00 PM)100% (Jul 15, 7:00 PM)29.98 "Hg (Jul 15, 7:00 PM)
Low77 °F (Jul 16, 6:00 AM)53% (Jul 13, 2:00 PM)29.83 "Hg (Jul 9, 5:00 PM)
Average87 °F73%29.89 "Hg
* Reported Jul 9 5:00 AM — Jul 23 8:00 PM, Maracaibo, Weather by CustomWeather, © 2016

Note: Actual official high and low records may vary slightly from our data, if they occured in-between our weather recording intervals... More about our weather records

Advertising

Maracaibo Weather History for the Previous 24 Hours

Scroll right to see more
 ConditionsComfort  
Time TempWeatherWind HumidityBarometerVisibility
8:00 PM
Sat, Jul 23
86 °FPassing clouds.10 mph66%29.86 "HgN/A
7:00 PM88 °FPassing clouds.13 mph66%29.83 "HgN/A
6:00 PM90 °FScattered clouds.16 mph71%29.83 "HgN/A
5:00 PM91 °FPassing clouds.16 mph56%29.83 "HgN/A
4:00 PM93 °FPassing clouds.15 mph53%29.86 "HgN/A
3:00 PM93 °FPassing clouds.10 mph53%29.89 "HgN/A
2:00 PM93 °FScattered clouds.8 mph59%29.89 "HgN/A
1:00 PM93 °FPartly sunny.7 mph59%29.92 "HgN/A
12:00 PM93 °FScattered clouds.5 mph63%29.92 "HgN/A
11:00 AM93 °FPassing clouds.8 mph59%29.92 "HgN/A
10:00 AM91 °FPassing clouds.7 mph59%29.92 "HgN/A
9:00 AM86 °FPassing clouds.6 mph70%29.89 "HgN/A
8:00 AM82 °FPassing clouds.8 mph79%29.89 "HgN/A
7:00 AM82 °FScattered clouds.7 mph79%29.89 "HgN/A
6:00 AM82 °FPassing clouds.5 mph79%29.86 "HgN/A
11:00 PM
Fri, Jul 22
84 °FPassing clouds.8 mph79%29.86 "HgN/A
10:00 PM84 °FPassing clouds.10 mph79%29.86 "HgN/A
Weather by CustomWeather, © 2016

See weather overviewHow to use our weather pages